Погода в Венгене

Швейцария     46°36′17″N   7°55′16″E
темп.,
°C
ветер,
м/с
пор.,
м/с
влажн.,
%
обл.,
%
осадки,
мм/ч
давл.,
гПа
погр.,
м
17 августа, ср
ср1723:00+7юв339465 0.1 101842
02:00+6юв339345 0.3 101869
05:00+6юв229241 0.0 101781
08:00+7юв339386 0.1 1017156
11:00+10ююв338297 0.2 1016562
14:00+11юв337540 1.3 1016710
17:00+11юв3373100 0.8 1015725
20:00+8ююв4489100 1.3 1016145
18 августа, чт
чт1823:00+6ююв2298100 0.6 101877
02:00+6ю22100100 1.4 1016156
05:00+7ю12100100 2.7 1015127
08:00+7ююв22100100 5.9 1015104
11:00+8юв228861 1.1 1015435
14:00+9юв028491 4.6 1014454
17:00+8ююв1286100 4.3 1014312
20:00+7ю0199100 11.1 1014287
19 августа, пт
пт1923:00+6сз1197100 8.9 1016104
02:00+6сз2297100 9.2 1015103
05:00+5сз2298100 0.5 1015133
08:00+6ссз3399100 4.8 1015175
11:00+6ссз3498100 4.5 1017268
14:00+7сз348796 4.9 1018554
17:00+8сз448170 0.2 1019693
20:00+6ссз338826 0.3 1021176
20 августа, сб
сб2023:00+5ссз339669 0.1 102280
02:00+5сз229776 0.1 1021103
05:00+5ссз239672 0.1 1021112
08:00+6ссз239255 0.3 1022177
11:00+8ссз228056 0.1 1021576
14:00+9ссз217967 0.2 1021680
17:00+10сз227455 0.1 1021739
20:00+7ссз228966 0.1 1023126
21 августа, вс
вс2123:00+5с229025 0.0 102324
02:00+3ссв018816 0.0 102311
05:00+3зсз0186100 0.0 102110
08:00+6ссз0180100 0.0 102128
11:00+9зсз1167100 0.0 1020679
14:00+11сз226476 0.1 10181014
17:00+9ссз3284100 1.1 1019446
20:00+6с229299 1.8 102197